Temperature
6 6 5 5 5 5 4 4 3 3 3 4 4 4 3 3 3 3 3 3 3 3 3 3 3 3 3 3 3 3 3 3 3 3 4 4 4 4
6 6 5 5 5 5 4 4 3 3 2 3 3 3 3 3 2 2 2 2 2 2 2 2 2 3 3 3 3 3 3 3 3 3 3 3 3 4
6 5 5 5 5 4 4 4 3 3 2 3 3 3 2 2 2 2 2 2 2 2 2 2 2 2 2 2 3 3 3 2 3 3 3 3 3 3
5 5 5 4 4 4 4 3 3 3 2 2 2 2 2 2 2 2 2 2 2 2 2 2 2 2 2 2 2 2 2 2 2 2 2 2 3 3
5 5 4 4 4 4 3 3 3 2 2 1 1 1 1 1 1 1 1 1 1 1 1 1 2 2 1 2 2 2 2 2 2 2 2 2 2 2
4 4 4 4 3 3 3 2 2 2 1 1 1 1 1 1 0 0 1 1 1 1 1 1 1 1 1 1 1 1 1 1 1 1 1 1 1 2
4 4 4 3 3 2 2 2 2 1 1 1 0 0 0 0 -0 -0 -0 0 0 0 1 1 1 1 1 1 1 1 1 1 1 1 1 1 1 1
4 4 3 3 2 2 2 2 1 1 0 0 -0 -0 -0 -0 -0 -1 -1 -1 -0 -0 -0 1 1 1 1 0 1 1 0 1 1 1 1 1 1 1
3 3 3 2 2 2 2 1 1 1 0 -0 -0 -1 -1 -1 -1 -1 -1 -1 -1 -1 -1 0 0 0 0 0 0 0 0 0 0 0 0 0 0 0
3 2 2 2 2 1 1 1 1 1 0 -0 -1 -1 -1 -1 -1 -1 -1 -1 -1 -1 -1 -1 -0 -0 0 0 -0 -0 -0 -0 -0 -0 0 0 0 0
2 2 2 1 1 1 1 1 1 1 0 -0 -1 -1 -1 -1 -1 -1 -1 -1 -1 -1 -1 -2 -1 -1 -0 -0 -0 -0 -0 -0 -0 -0 -0 -0 -0 -0
2 2 1 1 1 1 0 0 0 0 0 -0 -0 -1 -1 -1 -1 -1 -2 -2 -2 -2 -2 -2 -2 -2 -1 -1 -0 -0 -0 -0 -0 -0 -1 -1 -1 -1
1 1 1 1 1 0 0 0 -0 -0 -0 -1 -1 -1 -1 -1 -1 -1 -2 -2 -2 -2 -2 -2 -2 -2 -2 -2 -1 -1 -1 -1 -1 -1 -1 -1 -1 -1
1 1 1 0 0 0 0 -0 -0 -0 -0 -1 -1 -1 -1 -1 -1 -1 -2 -2 -2 -2 -2 -2 -2 -2 -2 -2 -2 -1 -1 -1 -1 -1 -1 -1 -1 -1
0 0 0 0 0 0 -0 -0 -1 -1 -1 -1 -1 -1 -1 -1 -2 -2 -2 -2 -2 -2 -2 -2 -2 -2 -2 -2 -2 -2 -2 -1 -1 -1 -1 -1 -1 -1
-0 -0 -0 -0 -0 -0 -1 -1 -1 -1 -1 -1 -1 -2 -2 -2 -2 -2 -2 -2 -2 -2 -2 -2 -2 -2 -2 -2 -2 -2 -2 -2 -2 -1 -1 -1 -1 -1
-1 -0 -0 -0 -1 -1 -1 -1 -1 -1 -1 -2 -2 -2 -2 -2 -2 -2 -3 -3 -3 -2 -2 -2 -2 -2 -2 -2 -2 -2 -2 -2 -2 -2 -2 -1 -1 -1
-1 -1 -1 -1 -1 -2 -2 -2 -2 -2 -2 -2 -2 -2 -2 -2 -2 -3 -3 -3 -3 -3 -3 -3 -3 -2 -2 -2 -2 -2 -2 -2 -2 -2 -2 -2 -2 -1
-1 -1 -1 -2 -2 -2 -2 -2 -2 -2 -2 -2 -2 -2 -2 -3 -3 -3 -3 -3 -3 -3 -3 -3 -3 -3 -3 -3 -3 -3 -3 -3 -3 -2 -2 -2 -2 -2
-2 -2 -2 -2 -2 -2 -2 -2 -2 -2 -2 -2 -2 -3 -3 -3 -3 -3 -3 -3 -3 -4 -3 -3 -4 -4 -4 -4 -4 -3 -3 -3 -3 -3 -3 -2 -2 -2
-2 -2 -3 -3 -3 -3 -3 -3 -3 -3 -3 -3 -3 -3 -3 -3 -3 -3 -4 -4 -4 -4 -4 -4 -4 -4 -4 -4 -4 -3 -3 -3 -3 -3 -3 -3 -3 -3
-3 -3 -3 -3 -3 -3 -3 -3 -3 -3 -3 -3 -3 -3 -3 -3 -3 -3 -4 -4 -4 -4 -4 -4 -4 -4 -4 -4 -4 -4 -3 -3 -3 -3 -3 -3 -3 -3
-3 -3 -3 -3 -3 -3 -3 -3 -3 -3 -3 -3 -3 -3 -3 -3 -3 -4 -4 -4 -4 -4 -4 -4 -4 -4 -4 -4 -4 -4 -4 -3 -3 -3 -3 -3 -3 -3
Wind_Speed
1 1 1 1 1 2 2 2 3 6 7 4 3 4 8 10 13 14 14 18 19 19 19 19 18 19 19 19 18 18 17 17 17 18 17 17 17 17
0 0 1 2 2 2 2 2 3 5 7 5 5 6 8 11 15 15 14 19 18 18 19 18 18 18 18 17 17 17 16 16 16 16 17 16 16 16
1 1 2 2 2 2 2 2 3 4 8 8 6 6 8 9 11 12 13 12 13 17 18 19 18 18 18 17 17 16 15 15 15 16 16 17 16 16
2 2 2 2 2 2 2 3 3 4 6 10 8 7 8 9 9 9 10 12 11 16 18 19 18 18 17 16 16 15 15 14 15 15 16 16 16 15
1 2 2 2 3 3 3 3 4 5 4 7 9 8 7 7 9 9 9 8 11 13 16 17 17 17 16 16 16 15 15 15 15 15 15 16 16 14
1 2 2 2 3 3 4 4 4 5 5 6 7 8 7 7 7 8 9 8 9 11 12 15 15 16 16 16 16 15 14 14 14 15 15 15 15 14
2 2 2 3 4 4 4 4 4 4 5 6 7 8 8 8 8 7 9 9 8 6 7 9 9 8 10 14 14 14 14 14 15 15 15 15 15 14
2 2 3 3 4 5 7 7 6 5 6 6 6 8 9 8 8 8 8 9 8 5 7 9 6 7 8 8 13 15 14 14 14 15 15 15 15 14
2 2 3 3 4 3 6 7 7 9 8 7 8 8 9 8 8 9 9 9 9 8 8 8 6 7 8 10 15 15 14 14 14 15 15 15 14 14
2 2 2 3 3 4 4 5 5 6 7 5 5 7 7 7 7 8 9 9 8 5 5 6 6 6 8 8 12 14 15 14 15 15 16 15 14 14
2 2 2 3 5 6 4 5 6 5 7 8 9 9 11 12 10 6 7 7 8 6 4 3 5 7 6 5 8 13 14 14 15 16 15 15 14 13
2 2 3 4 5 6 4 4 6 6 6 7 7 8 7 8 10 6 5 6 7 5 4 4 5 6 5 4 4 7 9 13 15 15 15 14 14 9
2 2 2 5 6 6 6 4 6 7 5 5 5 5 5 5 6 5 5 4 5 5 5 5 5 5 4 6 5 5 6 7 9 10 13 14 14 10
2 2 2 4 5 7 6 6 8 7 4 4 4 5 5 6 6 6 6 5 5 6 7 6 5 5 6 7 6 5 6 6 6 7 7 11 12 12
1 3 4 4 5 5 6 7 6 4 3 4 4 5 5 6 6 6 6 6 6 6 6 6 5 5 4 5 6 6 6 6 6 6 6 7 6 7
2 2 4 4 4 5 5 4 4 3 3 3 4 4 5 5 5 5 6 6 5 5 5 7 6 5 4 5 5 6 6 5 7 7 7 6 6 6
2 2 2 2 3 3 3 3 3 4 4 4 4 5 5 5 6 6 5 5 4 5 6 6 6 5 4 4 4 5 5 5 6 7 6 7 6 6
2 1 2 2 2 3 3 4 4 4 4 4 4 4 5 6 6 6 5 5 5 5 6 6 6 6 4 3 3 4 4 5 6 6 5 5 7 6
2 1 1 2 2 2 3 3 3 4 4 4 4 4 5 5 5 6 6 5 5 5 5 5 5 5 6 6 5 4 4 6 6 6 5 4 5 7
2 1 2 2 2 2 3 3 3 4 4 4 4 4 5 5 5 5 5 6 6 5 5 5 5 5 4 5 5 6 8 5 5 6 6 5 4 6
2 2 2 2 2 2 3 3 3 3 4 4 4 5 5 5 5 5 5 7 6 5 6 6 6 8 4 3 4 5 5 8 7 5 6 5 5 4
2 2 2 2 2 2 3 3 3 3 4 4 4 4 4 4 5 6 5 5 5 5 5 5 6 5 3 3 5 6 7 8 9 10 8 5 3 3
2 2 2 2 2 2 2 3 3 3 3 4 4 4 4 4 4 5 5 5 4 5 5 5 5 4 4 4 4 5 7 8 6 7 6 8 7 6
Wind_Direction
210 269 281 282 292 290 292 283 287 302 304 302 322 325 331 323 320 321 319 318 319 319 320 320 320 320 320 321 320 319 318 317 316 314 313 311 309 309
208 279 293 285 286 289 284 282 271 277 288 296 305 311 321 323 323 325 319 319 319 320 321 321 321 322 322 323 322 321 321 321 321 319 315 311 311 310
248 245 266 274 274 278 277 277 278 276 283 294 300 312 317 318 320 321 320 320 320 322 321 321 323 324 325 323 324 325 325 325 325 323 320 315 311 312
249 261 275 285 281 280 279 279 280 280 282 296 306 314 313 313 314 317 324 322 320 323 324 323 324 326 329 331 332 332 329 327 327 325 323 320 316 313
252 266 279 286 289 293 292 290 290 296 293 296 302 306 309 314 317 317 319 319 323 325 326 328 328 330 333 334 333 333 332 331 330 330 329 329 325 319
264 265 276 280 286 296 297 295 300 304 303 300 300 307 310 312 318 322 323 324 324 326 327 326 327 329 331 331 331 331 333 334 333 333 333 332 330 325
284 279 279 287 301 304 304 307 308 304 305 303 303 310 314 320 322 320 320 320 317 321 323 324 325 326 327 326 328 330 333 335 335 335 336 336 333 331
280 290 291 287 300 312 314 312 307 298 300 299 299 303 306 311 317 320 320 321 317 325 326 317 319 317 322 326 327 331 334 337 338 340 340 339 337 334
267 288 303 305 312 307 309 311 305 298 291 288 292 296 301 308 313 314 315 314 304 311 319 308 315 313 318 323 329 334 338 340 341 342 340 339 338 336
265 272 284 295 302 308 311 310 301 300 297 295 287 293 302 308 306 305 304 306 299 308 325 306 310 311 314 317 326 334 339 342 343 343 342 340 339 338
290 300 296 293 304 319 320 313 313 313 316 312 312 314 320 324 326 323 322 323 317 316 337 319 312 317 311 308 322 332 337 342 343 344 343 340 339 339
305 310 309 317 319 326 319 311 312 315 325 329 327 327 328 331 336 332 320 318 317 316 337 334 319 330 323 308 319 331 335 337 340 342 343 342 343 343
293 308 319 327 325 326 323 309 309 319 326 329 329 331 334 335 335 332 323 310 307 301 310 323 315 319 306 309 315 323 333 335 338 338 341 342 342 342
293 307 321 330 334 332 331 331 334 337 334 335 335 335 335 335 332 332 327 316 294 286 295 305 299 308 312 310 312 321 327 333 338 337 341 340 342 343
341 338 342 347 344 341 342 346 349 350 345 342 336 331 328 324 326 328 325 323 320 314 315 312 300 300 299 300 307 316 322 324 336 338 338 338 337 340
357 3 8 4 351 343 348 354 358 352 346 337 329 325 328 333 332 330 329 332 334 329 331 333 324 310 309 303 305 315 322 321 329 333 332 331 339 345
2 12 10 359 359 355 355 356 357 354 353 345 337 334 335 336 334 336 335 337 338 334 338 338 339 330 307 302 314 322 327 325 325 330 334 338 340 349
30 25 1 352 343 344 350 350 351 350 345 342 339 337 337 338 337 338 341 342 341 336 336 336 340 341 340 341 317 314 329 325 328 333 336 339 340 347
42 31 349 336 338 347 346 341 337 335 337 340 338 338 338 337 336 339 344 344 341 337 333 336 343 349 353 346 333 343 333 330 336 341 342 338 331 333
31 5 341 337 340 345 342 340 336 337 340 342 339 339 339 335 336 339 341 340 338 336 337 343 348 346 339 322 314 318 332 327 333 336 335 332 320 320
5 357 349 344 344 343 339 337 333 331 335 340 341 338 337 336 336 337 336 337 338 337 341 340 328 323 309 312 325 331 335 342 339 326 325 330 335 351
1 355 352 347 340 338 338 336 335 335 337 340 337 335 335 334 331 331 333 336 339 336 333 329 330 338 350 354 342 333 335 339 345 348 348 337 327 349
356 348 342 339 338 339 337 334 331 330 332 332 331 329 329 328 325 325 326 330 333 335 339 340 345 352 351 345 340 338 340 343 346 352 354 356 354 337
Height
1501 1501 1500 1500 1499 1498 1497 1496 1493 1487 1483 1481 1480 1478 1475 1472 1469 1465 1462 1458 1455 1451 1448 1444 1440 1437 1433 1429 1426 1422 1419 1417 1415 1412 1410 1408 1406 1404
1499 1498 1497 1497 1496 1495 1494 1493 1491 1488 1482 1478 1476 1474 1471 1468 1465 1461 1457 1454 1450 1447 1443 1440 1436 1432 1428 1425 1422 1418 1415 1413 1410 1408 1405 1403 1401 1398
1496 1495 1494 1494 1493 1492 1490 1489 1487 1485 1479 1474 1473 1470 1467 1464 1460 1457 1453 1449 1446 1443 1439 1436 1432 1428 1424 1421 1418 1414 1411 1409 1406 1403 1401 1398 1396 1394
1493 1492 1491 1491 1490 1488 1487 1485 1483 1481 1478 1471 1468 1466 1463 1460 1456 1453 1449 1446 1442 1438 1435 1432 1428 1424 1421 1417 1414 1411 1408 1405 1402 1400 1397 1394 1391 1389
1490 1489 1488 1487 1486 1485 1483 1481 1479 1477 1474 1470 1465 1462 1459 1456 1452 1449 1445 1441 1438 1435 1431 1428 1424 1421 1417 1414 1410 1407 1404 1402 1399 1396 1393 1390 1387 1384
1486 1486 1485 1484 1483 1481 1479 1477 1475 1473 1470 1467 1463 1459 1456 1453 1450 1445 1440 1437 1434 1431 1427 1424 1421 1417 1414 1410 1407 1404 1401 1398 1395 1392 1389 1386 1383 1381
1483 1482 1481 1481 1479 1478 1476 1474 1471 1469 1466 1463 1460 1456 1453 1450 1446 1443 1438 1434 1430 1428 1424 1421 1417 1414 1410 1407 1404 1401 1398 1395 1392 1389 1386 1383 1380 1378
1479 1479 1478 1477 1475 1474 1472 1470 1469 1466 1463 1460 1457 1454 1451 1448 1444 1441 1437 1432 1427 1425 1421 1417 1415 1411 1408 1404 1401 1399 1396 1393 1390 1386 1383 1380 1377 1374
1476 1475 1474 1473 1472 1470 1468 1467 1465 1463 1461 1458 1455 1452 1448 1445 1442 1438 1435 1431 1427 1423 1419 1414 1411 1408 1405 1402 1399 1397 1394 1390 1387 1384 1380 1377 1374 1371
1473 1472 1471 1470 1469 1467 1465 1463 1461 1459 1457 1455 1452 1449 1446 1443 1440 1437 1433 1429 1424 1421 1418 1412 1408 1406 1403 1400 1397 1394 1391 1388 1385 1381 1378 1374 1371 1369
1470 1469 1468 1467 1465 1464 1462 1460 1458 1455 1454 1451 1449 1446 1444 1441 1438 1434 1430 1426 1421 1417 1416 1412 1407 1403 1400 1398 1395 1392 1389 1386 1383 1379 1375 1372 1369 1366
1467 1466 1465 1464 1463 1461 1459 1457 1454 1452 1450 1447 1445 1443 1440 1437 1435 1432 1428 1424 1420 1416 1413 1410 1406 1403 1398 1395 1393 1390 1387 1384 1381 1377 1374 1370 1367 1364
1463 1463 1462 1461 1459 1458 1457 1454 1452 1450 1447 1445 1442 1440 1437 1434 1432 1429 1426 1423 1419 1416 1413 1410 1406 1403 1400 1395 1391 1389 1386 1382 1379 1375 1372 1369 1366 1363
1460 1460 1459 1458 1457 1455 1454 1452 1450 1448 1445 1443 1440 1437 1435 1432 1429 1426 1424 1421 1418 1415 1412 1409 1406 1403 1399 1395 1391 1387 1385 1382 1378 1374 1371 1368 1364 1362
1458 1457 1457 1455 1454 1453 1451 1449 1447 1445 1443 1441 1438 1436 1433 1430 1427 1424 1421 1419 1416 1414 1411 1408 1405 1402 1399 1396 1391 1387 1384 1380 1377 1374 1370 1367 1364 1361
1456 1455 1454 1453 1452 1450 1449 1447 1445 1443 1441 1439 1437 1434 1432 1429 1426 1423 1419 1417 1414 1411 1410 1407 1404 1401 1398 1395 1392 1388 1384 1381 1377 1374 1370 1366 1363 1360
1453 1452 1451 1450 1449 1448 1446 1445 1443 1442 1440 1438 1435 1433 1430 1427 1424 1422 1419 1416 1413 1410 1407 1406 1403 1400 1398 1394 1391 1388 1384 1381 1377 1374 1370 1366 1363 1360
1452 1450 1449 1448 1447 1446 1444 1443 1442 1440 1438 1436 1434 1432 1429 1426 1424 1421 1419 1416 1413 1410 1407 1405 1402 1398 1396 1393 1392 1388 1384 1381 1377 1374 1371 1366 1362 1360
1449 1448 1447 1446 1445 1444 1443 1442 1440 1439 1437 1435 1433 1431 1428 1426 1423 1421 1418 1416 1413 1411 1408 1405 1403 1399 1396 1393 1391 1389 1385 1381 1377 1374 1371 1367 1364 1361
1447 1446 1445 1444 1443 1442 1441 1440 1439 1437 1436 1434 1432 1430 1428 1425 1423 1421 1418 1416 1413 1411 1408 1406 1403 1401 1398 1395 1392 1389 1386 1382 1378 1374 1371 1368 1365 1363
1445 1445 1444 1443 1442 1441 1440 1439 1437 1436 1435 1433 1431 1429 1427 1425 1423 1420 1418 1416 1413 1411 1408 1406 1404 1402 1399 1396 1392 1388 1386 1384 1380 1376 1372 1369 1366 1363
1444 1443 1442 1441 1441 1440 1439 1437 1436 1435 1433 1432 1430 1428 1426 1424 1422 1420 1418 1416 1413 1411 1408 1406 1404 1401 1398 1396 1392 1389 1386 1383 1381 1378 1375 1372 1369 1365
1442 1441 1441 1440 1439 1438 1437 1436 1435 1433 1432 1430 1429 1427 1425 1424 1422 1420 1418 1415 1413 1411 1408 1406 1403 1401 1398 1396 1393 1390 1387 1384 1381 1377 1375 1373 1371 1368